Wind_Speed
45 57 84 91 90 90 95 99 102 108 105 98 107 113 111 123 120 113 115 116 111 108 112 120 130 122 125 125 97 87 87 74 76 66 65 63 63 63 61 59 59 59 59 59 58
40 39 47 56 69 71 77 90 103 90 94 88 89 89 96 94 90 99 113 115 114 116 114 103 96 91 79 72 63 56 50 50 50 51 51 50 50 49 46 44 45 46 47 47 44
39 39 42 46 42 45 54 56 65 65 66 75 72 78 69 84 96 97 104 87 85 75 75 71 62 53 53 48 38 31 33 32 31 31 31 31 33 35 34 33 32 33 35 37 38
37 35 33 32 30 30 37 46 46 45 37 45 57 68 70 59 65 64 74 66 54 48 48 41 30 24 23 21 18 15 15 17 17 17 18 18 18 20 21 21 23 26 27 28 28
29 27 26 25 23 23 22 22 23 24 21 27 36 40 49 40 38 42 41 38 26 22 17 15 12 11 15 14 13 13 15 15 14 14 16 17 18 19 17 17 20 20 23 23 20
24 22 21 18 16 13 11 9 7 8 14 21 25 28 31 33 33 30 23 19 19 15 16 15 13 17 15 15 17 17 20 20 16 14 16 19 18 17 14 14 18 19 18 14 23
24 22 19 17 13 11 8 4 5 7 14 19 22 22 24 17 18 12 10 12 9 10 12 15 18 12 19 26 29 22 13 31 32 29 30 31 28 30 27 18 30 27 36 34 33
20 19 16 14 10 9 7 6 7 11 15 16 16 14 9 9 9 9 10 10 12 13 15 17 16 23 25 27 28 29 26 28 27 34 32 37 42 41 40 33 31 32 40 38 37
19 16 12 10 6 6 4 5 10 11 12 13 9 7 7 4 3 6 8 10 13 16 18 21 24 25 24 23 26 28 23 27 27 31 30 36 37 36 36 40 40 40 41 46 46
20 14 9 6 5 4 5 9 11 13 9 8 7 6 7 4 2 3 6 10 14 16 20 24 27 26 25 25 24 26 30 28 27 32 30 31 32 35 36 37 40 42 42 43 44
15 11 9 5 4 7 9 11 13 11 10 8 6 8 6 7 5 6 5 7 12 16 18 19 23 24 26 26 24 22 22 26 24 25 24 26 28 30 32 34 35 37 41 42 41
13 10 8 8 7 7 8 10 11 13 13 8 8 15 11 6 4 5 6 10 11 14 16 14 17 18 17 18 21 23 21 24 23 23 21 23 24 27 29 33 35 35 37 38 38
13 11 9 9 9 11 11 11 14 16 16 11 7 18 17 10 8 6 2 6 13 15 14 14 12 13 13 16 18 20 20 20 19 20 20 21 22 23 27 31 33 38 40 40 38
10 9 10 12 12 12 14 16 18 18 17 14 9 19 22 16 11 7 4 6 6 6 5 8 7 10 11 11 14 15 20 22 20 21 19 19 24 26 28 32 36 36 36 44 48
11 12 13 14 14 16 18 17 20 19 17 16 13 20 29 20 14 8 6 7 5 2 1 1 2 4 9 13 13 16 20 21 21 22 22 22 20 23 29 29 32 36 42 48 52
15 16 15 13 14 16 15 20 21 17 19 19 17 21 29 19 17 11 8 7 5 4 4 5 4 9 10 11 11 16 19 20 20 18 22 22 20 18 27 32 33 39 45 49 54
14 12 12 12 14 14 18 18 18 14 16 16 17 21 31 21 18 14 11 6 5 7 9 11 11 14 17 17 13 11 14 17 21 24 26 31 31 25 20 31 41 43 48 53 56
15 14 14 13 14 15 16 18 16 16 13 13 17 20 28 21 21 15 9 9 10 10 10 15 16 17 21 21 16 14 16 16 20 25 27 30 29 32 27 34 38 42 47 50 53
15 17 17 18 18 17 17 15 15 17 16 16 17 24 33 27 22 18 15 15 15 14 12 16 19 18 16 21 20 19 21 19 21 23 24 31 33 36 45 45 46 50 54 57 60
17 17 18 18 19 18 17 17 16 16 15 18 20 26 35 26 23 20 16 16 13 14 16 17 19 21 18 20 23 20 20 24 25 27 23 27 31 43 52 54 56 58 59 62 66
18 19 19 22 20 20 18 19 17 16 13 17 18 26 31 30 22 15 16 16 18 19 22 21 23 22 20 25 28 28 33 35 32 33 32 27 33 51 53 57 61 64 65 69 69
19 18 20 18 19 20 22 20 18 16 13 14 17 27 34 33 33 29 22 21 18 22 22 23 26 27 25 27 30 37 41 40 39 33 41 32 40 51 53 58 63 67 68 72 71
22 21 22 20 21 21 21 20 20 18 15 15 17 24 31 32 33 34 30 25 22 21 22 25 26 32 36 34 39 48 50 50 41 39 48 45 48 60 62 65 71 73 74 76 78
28 24 22 21 23 23 22 20 22 24 20 16 17 25 29 32 33 34 34 31 22 22 26 27 31 35 42 40 38 41 54 58 48 45 41 54 49 61 65 69 73 74 76 77 79
32 29 24 22 21 22 22 24 23 22 23 23 22 22 29 36 38 39 38 34 33 31 35 37 42 40 45 45 42 42 54 59 59 58 57 50 64 66 70 73 73 76 78 80 81
36 31 30 29 26 27 25 24 24 23 24 23 23 24 25 30 35 39 39 41 45 47 48 45 47 37 43 45 43 44 56 64 64 65 66 67 64 73 72 74 78 80 84 85 88
39 37 35 35 35 33 31 29 29 27 27 25 24 25 25 26 31 34 34 36 40 39 36 38 38 39 39 48 47 52 58 63 63 66 68 67 68 70 75 80 83 84 87 88 89
Wind_Direction
213 221 230 236 239 241 246 245 250 250 254 259 260 257 268 264 263 266 272 277 280 280 286 288 285 287 286 288 283 280 275 277 278 283 281 281 281 280 280 281 283 283 282 281 280
196 198 213 224 234 237 243 248 250 257 257 262 263 264 264 272 268 270 273 274 275 281 286 284 287 286 281 276 273 274 276 277 279 283 285 285 284 283 282 283 283 282 282 282 282
189 195 203 211 223 236 246 249 255 260 260 265 267 268 279 280 275 281 280 284 284 289 287 286 282 273 271 271 279 281 281 284 293 296 296 295 293 291 287 286 289 290 288 289 288
191 198 210 223 227 231 240 249 258 259 260 274 274 278 268 282 285 287 289 288 293 289 288 284 284 287 301 307 310 301 300 300 301 306 320 319 312 309 309 309 308 307 307 306 302
203 208 213 216 217 221 232 240 247 253 263 270 279 287 287 296 302 294 302 303 304 313 327 327 337 349 352 346 349 346 335 324 329 331 336 334 326 330 333 341 345 337 334 339 321
186 184 184 180 183 189 191 200 226 263 283 289 292 301 308 311 314 311 323 327 356 355 7 9 358 1 26 37 25 24 27 27 27 31 21 26 29 25 354 8 345 2 353 8 359
162 159 160 162 166 177 185 203 264 282 306 311 320 326 327 323 322 333 357 22 24 27 38 53 52 61 66 68 59 69 69 64 63 59 57 65 53 46 52 44 29 22 36 36 36
151 154 161 162 167 179 190 222 282 311 323 324 331 327 301 317 343 354 20 32 30 48 69 74 71 75 71 72 72 68 65 66 70 59 60 51 52 46 46 44 42 42 44 43 31
154 153 154 150 160 179 209 278 304 310 326 340 323 283 254 288 2 6 61 73 76 79 87 80 72 68 66 69 71 70 75 70 65 60 61 53 52 45 49 48 45 44 42 36 34
158 160 160 179 190 223 280 297 304 316 330 335 264 224 224 216 150 101 93 81 90 93 80 83 83 79 71 76 72 64 61 55 44 52 51 48 47 50 47 43 38 34 31 26 21
169 177 183 186 229 274 286 293 305 314 317 326 233 211 179 166 163 158 130 99 97 99 95 82 83 71 67 65 61 58 58 57 55 45 47 47 42 41 36 34 31 26 19 14 15
190 195 206 229 255 259 279 292 303 308 305 309 234 219 224 164 157 142 125 100 100 98 99 84 73 59 57 57 58 55 52 54 45 47 39 33 33 30 26 23 23 20 13 10 9
201 214 233 250 261 276 291 296 297 299 296 283 259 215 208 172 164 171 183 114 105 113 94 90 90 64 46 35 32 29 33 37 35 37 27 21 21 19 17 18 12 7 10 12 11
215 234 254 270 282 283 291 294 298 297 286 272 273 220 212 209 189 168 161 134 97 87 108 75 54 30 32 30 22 23 17 15 17 12 15 4 359 6 4 2 0 358 358 0 358
248 256 267 276 285 291 295 299 300 289 282 269 259 228 210 217 227 217 199 181 186 220 61 188 308 343 358 353 354 353 1 5 7 2 7 8 7 349 356 3 358 354 350 352 350
245 254 268 275 287 293 299 299 299 283 280 267 252 226 203 218 228 221 221 240 228 229 252 249 282 321 322 323 330 337 340 345 354 353 357 4 5 350 356 350 346 344 343 343 342
242 244 267 270 299 290 298 306 297 278 273 258 248 222 209 217 227 228 233 250 254 268 277 281 280 313 321 323 316 321 331 336 338 337 339 338 340 342 352 342 338 340 338 338 339
245 247 257 268 289 280 294 309 289 278 279 263 242 226 206 212 222 232 263 276 274 275 294 297 299 298 303 305 309 306 319 324 334 333 328 331 332 333 345 344 343 340 336 336 333
256 257 259 262 277 284 295 311 305 281 277 273 259 230 214 217 221 239 259 279 288 303 315 316 305 309 300 298 315 315 315 320 332 335 338 330 333 324 327 335 336 335 334 331 328
259 266 271 271 278 281 287 302 311 301 284 277 265 234 214 218 226 246 256 275 298 310 318 315 320 314 299 286 304 317 315 318 323 325 329 326 332 317 324 330 337 337 334 329 325
263 264 269 275 276 279 286 299 304 312 289 282 251 224 218 216 232 256 256 281 296 307 313 316 317 309 292 289 296 299 305 313 320 323 326 334 339 314 325 326 330 329 328 326 323
261 265 274 272 277 286 289 289 298 299 285 287 252 230 226 235 251 258 257 274 287 297 306 313 316 315 305 298 299 301 300 305 312 319 318 332 331 319 318 324 322 325 323 319 323
254 258 269 266 272 280 287 290 298 293 286 281 255 241 231 244 246 249 257 268 278 287 301 304 308 310 309 305 309 311 311 308 308 314 312 326 322 315 320 324 322 323 323 319 321
249 257 263 264 268 275 276 285 292 299 292 281 270 245 246 249 252 254 260 269 269 271 297 297 303 304 306 304 301 304 308 304 305 309 313 311 316 311 317 318 320 319 317 316 319
251 250 255 265 271 269 275 276 283 289 291 294 287 271 261 256 260 264 269 271 273 272 286 296 296 298 298 296 296 299 299 300 301 304 307 310 313 313 316 317 316 315 313 313 313
257 251 254 262 268 274 274 277 279 283 284 288 288 292 282 273 272 273 277 279 280 284 289 289 285 283 292 294 293 297 300 302 304 306 310 313 315 311 314 313 312 311 310 312 311
258 260 260 260 260 268 271 274 277 277 280 279 283 281 285 287 287 286 286 286 288 288 288 289 286 283 286 292 295 299 299 300 303 304 303 304 306 307 309 309 310 310 310 310 310
Height
10701 10710 10716 10724 10725 10726 10732 10733 10734 10740 10744 10741 10743 10738 10738 10730 10738 10733 10734 10732 10730 10731 10729 10723 10721 10714 10713 10704 10697 10686 10679 10672 10669 10663 10660 10658 10654 10649 10645 10641 10638 10634 10632 10629 10626
10697 10700 10709 10714 10716 10720 10722 10724 10732 10734 10738 10736 10732 10727 10724 10724 10722 10721 10719 10724 10721 10717 10716 10710 10703 10695 10690 10685 10673 10667 10665 10659 10655 10652 10650 10647 10642 10637 10635 10631 10627 10624 10621 10618 10616
10696 10703 10707 10709 10712 10713 10716 10720 10726 10731 10729 10731 10724 10721 10714 10716 10712 10708 10708 10710 10709 10706 10701 10694 10686 10678 10674 10668 10663 10658 10655 10651 10649 10646 10642 10638 10633 10629 10627 10624 10622 10619 10616 10614 10611
10697 10700 10703 10705 10708 10712 10716 10718 10722 10725 10722 10720 10714 10720 10709 10704 10712 10701 10702 10701 10702 10690 10686 10677 10670 10666 10663 10657 10654 10651 10648 10645 10642 10640 10638 10633 10628 10625 10623 10621 10618 10614 10612 10610 10606
10694 10697 10700 10704 10708 10710 10712 10716 10720 10722 10720 10716 10713 10711 10707 10702 10702 10702 10696 10695 10689 10683 10674 10667 10663 10662 10659 10654 10650 10646 10644 10641 10640 10638 10634 10629 10626 10623 10620 10618 10615 10612 10610 10607 10604
10692 10697 10701 10704 10707 10710 10713 10717 10719 10719 10717 10712 10710 10707 10705 10700 10700 10696 10692 10688 10682 10677 10673 10669 10664 10660 10655 10652 10649 10646 10644 10641 10639 10637 10634 10630 10627 10623 10621 10619 10615 10612 10608 10605 10601
10695 10699 10702 10705 10708 10710 10713 10715 10716 10717 10713 10709 10706 10703 10700 10700 10698 10695 10691 10687 10684 10680 10676 10670 10667 10664 10660 10657 10653 10651 10648 10646 10643 10639 10636 10632 10627 10624 10622 10619 10614 10612 10609 10605 10603
10697 10700 10703 10705 10708 10710 10712 10714 10714 10713 10711 10707 10704 10702 10702 10700 10698 10695 10691 10688 10685 10681 10676 10673 10671 10667 10665 10661 10659 10656 10652 10649 10646 10641 10637 10633 10628 10625 10623 10622 10618 10615 10611 10607 10604
10698 10701 10703 10706 10708 10709 10711 10712 10712 10712 10709 10705 10704 10704 10703 10701 10697 10695 10693 10689 10685 10683 10680 10675 10671 10669 10667 10664 10661 10657 10655 10651 10648 10644 10640 10636 10634 10632 10628 10624 10620 10617 10614 10611 10608
10699 10702 10704 10706 10707 10708 10709 10709 10709 10708 10707 10705 10705 10704 10702 10701 10697 10695 10693 10689 10686 10684 10681 10677 10673 10672 10668 10664 10662 10658 10656 10651 10646 10645 10641 10639 10637 10634 10631 10628 10625 10621 10617 10613 10609
10699 10701 10703 10705 10706 10707 10707 10706 10706 10706 10705 10705 10704 10704 10702 10700 10698 10695 10694 10691 10687 10683 10681 10679 10676 10673 10670 10667 10664 10660 10657 10653 10651 10648 10645 10643 10639 10636 10633 10629 10625 10622 10617 10612 10608
10698 10700 10702 10704 10705 10705 10706 10705 10704 10703 10703 10703 10702 10702 10702 10699 10698 10696 10695 10692 10688 10685 10682 10680 10677 10674 10671 10669 10667 10663 10661 10657 10653 10650 10647 10643 10640 10635 10632 10628 10625 10622 10618 10614 10609
10697 10699 10701 10702 10702 10703 10703 10703 10702 10700 10700 10700 10700 10700 10701 10699 10697 10695 10694 10692 10690 10687 10684 10681 10679 10676 10673 10669 10666 10664 10661 10657 10653 10650 10647 10644 10640 10636 10632 10627 10623 10619 10615 10610 10605
10696 10698 10699 10699 10699 10699 10699 10698 10698 10697 10697 10696 10697 10696 10697 10698 10696 10695 10694 10692 10690 10687 10685 10682 10680 10677 10674 10671 10668 10664 10660 10655 10652 10648 10645 10641 10636 10631 10627 10623 10619 10615 10611 10606 10601
10693 10694 10695 10695 10695 10695 10695 10695 10694 10693 10693 10693 10692 10690 10692 10695 10695 10694 10692 10690 10688 10687 10684 10682 10680 10677 10674 10671 10667 10663 10659 10654 10650 10646 10643 10638 10634 10630 10626 10622 10618 10612 10605 10598 10591
10690 10691 10691 10692 10692 10691 10691 10691 10689 10688 10688 10688 10687 10687 10689 10691 10692 10692 10690 10688 10687 10685 10683 10681 10678 10676 10672 10669 10665 10661 10657 10653 10650 10646 10643 10638 10634 10629 10624 10619 10612 10608 10602 10594 10587
10687 10688 10688 10688 10689 10688 10688 10687 10685 10684 10683 10683 10682 10682 10685 10687 10688 10688 10688 10687 10685 10684 10681 10679 10677 10673 10670 10667 10663 10660 10657 10652 10647 10643 10639 10633 10628 10625 10621 10616 10608 10602 10596 10590 10583
10684 10684 10685 10685 10685 10685 10685 10683 10681 10679 10678 10677 10678 10678 10681 10683 10684 10685 10685 10683 10682 10680 10678 10676 10674 10671 10667 10663 10661 10658 10654 10651 10647 10642 10636 10631 10627 10619 10616 10611 10604 10599 10593 10587 10580
10680 10681 10681 10681 10681 10681 10680 10678 10676 10675 10674 10674 10674 10674 10676 10678 10680 10681 10681 10679 10678 10676 10675 10672 10670 10667 10664 10660 10657 10655 10651 10648 10645 10641 10636 10628 10621 10614 10606 10603 10598 10591 10585 10579 10571
10676 10676 10676 10677 10677 10676 10675 10674 10672 10670 10669 10669 10669 10669 10672 10675 10676 10676 10677 10676 10674 10673 10671 10669 10666 10662 10660 10657 10653 10650 10647 10645 10641 10637 10634 10628 10619 10606 10596 10590 10584 10580 10575 10567 10558
10672 10672 10672 10672 10672 10671 10671 10670 10668 10667 10666 10664 10664 10666 10668 10670 10672 10672 10672 10672 10669 10667 10665 10663 10659 10656 10655 10652 10648 10646 10640 10636 10634 10628 10624 10623 10616 10596 10591 10581 10573 10566 10560 10553 10544
10667 10668 10667 10667 10668 10668 10667 10666 10665 10664 10662 10661 10661 10663 10665 10666 10667 10668 10667 10666 10663 10661 10659 10656 10654 10650 10647 10644 10642 10637 10632 10629 10625 10623 10613 10612 10612 10591 10586 10578 10569 10561 10551 10541 10531
10662 10662 10663 10663 10664 10663 10662 10661 10660 10659 10658 10657 10657 10658 10660 10661 10662 10662 10661 10660 10659 10656 10654 10651 10648 10644 10640 10637 10633 10625 10618 10615 10615 10613 10605 10599 10597 10578 10570 10565 10555 10546 10535 10523 10515
10656 10657 10658 10658 10658 10658 10658 10656 10655 10655 10653 10653 10652 10653 10654 10655 10654 10654 10654 10653 10652 10650 10648 10645 10641 10636 10632 10627 10623 10620 10609 10599 10603 10602 10602 10588 10590 10573 10564 10554 10546 10536 10523 10514 10504
10648 10651 10652 10652 10652 10652 10652 10652 10651 10650 10649 10648 10648 10648 10647 10647 10646 10647 10646 10646 10643 10641 10639 10637 10633 10628 10624 10619 10616 10612 10600 10591 10589 10586 10582 10587 10566 10561 10551 10541 10531 10522 10512 10504 10493
10641 10643 10645 10646 10646 10646 10646 10645 10645 10645 10644 10643 10643 10641 10641 10641 10639 10639 10638 10637 10632 10632 10628 10627 10624 10620 10616 10609 10607 10603 10589 10578 10575 10568 10562 10557 10559 10538 10534 10526 10519 10508 10498 10490 10478
10632 10635 10636 10637 10638 10639 10640 10640 10640 10639 10639 10639 10638 10637 10637 10635 10633 10631 10629 10627 10623 10621 10619 10616 10613 10611 10610 10599 10597 10593 10583 10570 10565 10557 10549 10548 10542 10536 10524 10510 10500 10492 10482 10473 10462